Regional Weather Roundup
Issued by NWS Nashville, TN

Home | Current Version | Previous Version | Text Only | Print | Product List | Glossary On
Versions: 1 2 3 4 5 6 7 8 9 10 11 12 13 14 15 16 17 18 19 20 21 22 23 24 25 26 27
000
ASUS44 KOHX 281310
RWROHX
MIDDLE TENNESSEE HOURLY WEATHER ROUNDUP
NATIONAL WEATHER SERVICE NASHVILLE TN
800 AM CDT TUE MAR 28 2017

NOTE: "FAIR" INDICATES FEW OR NO CLOUDS BELOW 12,000 FEET WITH
NO SIGNIFICANT WEATHER AND/OR OBSTRUCTIONS TO VISIBILITY.

* THESE REPORTS ARE NOT UNDER NWS QUALITY CONTROL AND MAY NOT
  REPORT WEATHER SUCH AS PRECIPITATION AND FOG.


TNZ005>011-023>034-057-059-062>066-078-080-281400
...NORTHERN MIDDLE TENNESSEE...

CITY           SKY/WX    TMP DP  RH WIND       PRES   REMARKS
CLARKSVILLE    CLOUDY    55  52  89 W6        30.00R
CROSSVILLE     CLOUDY    55  54  96 W8        29.99R
GALLATIN       CLOUDY    57  54  88 CALM      30.02R
NASHVILLE      PTSUNNY   57  54  89 CALM      30.01R
PORTLAND       CLOUDY    55  54  94 W5        29.99R
SMYRNA         CLOUDY    56  54  93 NW8       30.02R
SPARTA         CLOUDY    57  57 100 CALM      29.97R
WEST NASHVILLE MOSUNNY   55  55 100 W3          N/A
$$
TNZ056-058-060-061-075>077-079-093>097-281400
...SOUTHERN MIDDLE TENNESSEE...

CITY           SKY/WX    TMP DP  RH WIND       PRES   REMARKS
COLUMBIA       CLOUDY   N/A N/A N/A VRB6      29.98R
FAYETTEVILLE   FOG       57  57 100 CALM      29.98R VSB 1/4
MCMINNVILLE    PTSUNNY   57  57 100 W3        29.98R
SHELBYVILLE    CLOUDY    59  57  94 NW6       30.00R
TULLAHOMA      CLOUDY    57  57 100 CALM        N/A
WINCHESTER     CLOUDY    55  55 100 CALM      29.99R
$$


...KEY TO REMARKS...
VSB - VISIBILITY IN MILES
WCI - WIND CHILL INDEX
HX  - HEAT INDEX





USA.gov is the U.S. government's official web portal to all federal, state and local government web resources and services.